154P/Brewington                                                 

Epoch 2003 Feb. 10.0 TT = JDT 2452680.5  

T 2003 Feb. 19.36823 TT                                 Nakano

q   1.5903506            (2000.0)            P               Q

n   0.09246175     Peri.   48.00531     +0.84095942     -0.53401016

a   4.8435223      Node   343.64466     +0.35754950     +0.66950375

e   0.6716541      Incl.   18.05943     +0.40613497     +0.51633117

P  10.66

From 165 observations 1992-2002, mean residual 0".95.

Residuals in seconds of arc 

1992/                     921030 411  1.1+  0.7-    020906 213 (1.6-  2.0+) 

920828 402  1.2-  2.2+    921030 411  1.5-  0.3+    020906 213 (1.8+  4.7-) 

920828 402 (3.2-  0.9+)   921121 411  0.1+  0.5-    020923 340  0.6-  1.5+  

920828 897(10.1-  4.0+)   921121 411 (2.4-  0.1-)   020923 340 (1.7-  5.4+) 

920828 402  1.8-  1.1+    921128 691  0.3-  0.4-    020923 340  1.9+  0.4-  

920829 372  0.5-  0.2+    921128 691  0.0   0.3-    020923 340 (2.5+  0.6-) 

920829 372  0.2+  0.2-    921128 691  0.7+  0.5-    021002 360  0.7+  0.0   

920829 372  0.0   0.1+    921203 658  1.0+  0.5-    021002 360  0.0   0.7+  

920831 557  1.0-  0.7+ Y  921203 658  1.0+  0.2-    021002 360  0.0   0.3+  

920831 557  2.0-  1.0- Y  921203 658  1.1+  0.5-    021004 704  1.2+  0.5-  

920831 557 (2.9-  1.8-)Y  921204 411  0.1-  0.4+    021004 704  1.0+  0.4-  

920831 801  1.4-  0.8+    921204 411  0.5+  0.5+    021004 704  0.6+  0.4-  

920831 801  1.1-  0.9+    921221 801  1.2-  0.3-    021004 704  0.7+  0.4+  

920831 897  1.0-  1.9+    921221 801  1.4-  0.2-    021026 213 (2.7-  0.2-) 

920831 372  2.2+  1.0+    921225 801  0.7-  0.7-    021026 213 (2.3+  0.2+) 

920831 372 (4.1+  0.1+)   921225 801  1.1-  0.1+    021103 349  0.3-  1.1+  

920831 372 (2.5+  0.5-)   921231 372  2.1+  1.7-    021103 349 (2.2-  0.8+) 

920831 894  0.0   1.5-    921231 372  0.1-  0.1-    021103 349  0.3+  0.1-  

920831 897  2.1-  0.7+    1993/                     021104 349  0.0   1.8+  

920901 657  1.8+  0.0     930121 801  0.4+  1.4-    021104 349  1.2-  0.2+  

920901 894  2.2+  0.3+    930121 801  0.5+  1.0-    021104 349  1.2+  0.6+  

920902 657 (0.4+  2.7-)   930124 691  1.0-  1.2-    021104 349  0.9-  1.0+  

920903 894 (2.6+  0.7-)   930124 691  0.9-  1.2-    021106 333  0.8-  0.4-  

920904 372  1.1+  0.2-    930124 691  0.9-  1.1-    021106 333  0.1-  1.0-  

920904 894  2.0+  2.0-    930131 658  0.8+  0.4+    021106 333  0.7-  1.8-  

920904 372  0.8+  0.2+    930131 658  0.1+  1.6-    021106 333  0.0   0.5-  

920905 411  1.4+  0.3+    930131 658  0.9-  2.0+    021106 333  0.0   0.1-  

920905 411  1.4+  0.2-    930330 691  0.0   0.4-    021106 333  0.2-  0.1-  

920905 411  0.4+  0.1+    930330 691  1.4-  0.0     021106 333  1.2+  0.2+  

920905 372  0.7+  0.4+    930330 691  0.6-  0.7-    021106 333  0.9+  0.1-  

920906 587 (2.4+  0.4+)   930330 691 (2.7-  0.9-)   021106 360  0.6-  0.6-  

920906 587 (3.0+  0.8+)   2002/                     021106 360  0.2-  0.2-  

920906 587  0.4+  0.2+    020707 859 (4.1+  2.0-)   021107 704  0.1-  0.1-  

920925 801  1.2-  0.4+    020707 859 (2.2+  0.7+)   021107 704  1.0+  1.2-  

920925 801  1.5+  0.3-    020707 859 (1.0+  3.3-)   021107 704  0.5+  0.5-  

920925 372  0.1+  0.1+    020710 372 (0.2+  2.2+)   021107 704  1.4-  0.4-  

920925 372  1.3-  0.1-    020710 372  0.7-  0.4+    021110 704  1.1+  0.5-  

920926 372  1.0-  0.1-    020803 372  0.1-  0.6-    021110 704 (3.0+  0.0 ) 

920926 897  0.5+  1.0+    020804 372  0.6-  0.5+    021110 704  0.5-  1.8-  

920926 372  0.3+  0.7+    020804 372  0.0   0.7-    021110 704  1.3+  0.5-  

920926 894 (3.4-  1.9-)   020810 349  1.4-  0.4+    021110 704  1.4+  0.3+  

920926 897  1.3-  1.3+    020810 349  1.6-  0.9+    021122 232 (2.5+  2.7-) 

920926 894 (4.1+  1.0-)   020810 349  1.0+  0.4-    021122 232 (0.7+  2.2+) 

920926 410  0.5-  0.0     020815 372  0.2+  0.2-    021124 H43 (5.4-  1.6-) 

920926 410  1.1-  0.3+    020826 844 (7.3+  1.7+)   021128 H43 (0.1+  3.0-) 

920926 410  0.3+  0.2+    020826 844  0.4+  1.4+    021128 H43 (2.1-  1.0-) 

920927 589  0.4+  2.2+    020826 844 (3.1+  0.0 )   021128 360  0.7-  0.4-  

920927 589  1.0+  0.4+    020826 844  0.2-  0.1+    021128 360  0.9-  0.5-  

920927 589  1.9+  1.0-    020826 844  1.4-  0.7-    021130 201  1.2+  0.9-  

920927 411  1.8+  1.9-    020827 844  0.2+  0.5+    021130 201  0.2-  1.3+  

920927 411  0.4+  0.3+    020827 844  0.3+  1.9-    021130 201  0.7-  0.7-  

920927 411  0.8-  2.2+    020827 844 (0.7+  2.6-)   021130 201  0.2+  0.1-  

921001 801  1.1-  0.9+    020827 844  1.5-  0.6+    021130 213  0.8+  1.7-  

921001 801  0.5-  0.6+    020827 844 (2.1-  1.0-)   021130 213  0.2+  0.2-  

921002 900  1.7-  0.8-    020827 844 (3.6-  5.0-)   021130 213  0.0   0.8+  

921002 900  0.0   2.0-    020827 844  1.1-  0.9-    021202 J97 (4.3-  2.4+) 

921002 410 (2.9-  1.3+)   020827 844  0.6+  0.0     021202 J97  1.9+  0.7+  

921002 410  0.5-  0.0     020827 844  0.7-  0.1-    021206 921  0.7+  0.6+  

921005 372  0.2+  1.0+    020827 844  0.5+  0.8-    021206 921  0.5-  0.0   

921006 894  1.4+  0.6+    020827 844  1.8-  0.2-    021206 921  0.4+  0.1-  

921006 894  0.4-  0.9+    020828 844  1.4-  0.4-    021206 170  0.9-  1.7+  

921020 691  1.2-  0.4-    020828 844 (3.4+  0.5-)   021206 170  0.8+  1.3-  

921020 691  0.8-  0.6-    020829 340  0.4+  1.4+    021206 170  1.4+  0.4-  

921020 691  1.1-  0.6-    020829 340  1.1+  1.3-    021206 170  0.4-  0.7-  

921027 372  1.6+  2.1-    020829 340  0.5+  1.3-    021206 J97 (4.6+  0.2+) 

921027 372 (5.0-  2.4-)   020829 340  0.6+  1.9-    021206 J97  0.3+  1.1+  

921029 801  0.9-  0.1+    020829 340  0.9+  1.2-    021206 458 (2.2+  0.6-) 

921029 801  0.8-  0.1+    020829 340  0.4+  0.6+    021206 232 (3.9+  0.7+) 

921030 897 (9.8-  4.9-)Y  020902 372  0.4+  1.5+    021206 458  1.0-  0.5-  

921030 897 (6.0-  2.7+)Y  020905 921  1.5+  0.6-    021212 J97  0.9+  0.5+  

921030 411  0.9-  1.1+    020905 921 (0.6-  4.1-)   021212 J97  0.9-  0.5+  



NAKANO

         **** Don't distribute anyone except personal use only ****

                (C) Copyright 2003 OAA/ComputingSection

write mail from CFAD0::NAKANO on 2003-01-07 05:12:31(JST).

 





 154P/Brewington 

Epoch 2003 Feb. 10.0 TT = JDT 2452680.5  

T 2003 Feb. 19.36762 TT                                 Nakano

q   1.5903468            (2000.0)            P               Q

n   0.09246178     Peri.   48.00561     +0.84095924     -0.53401015

a   4.8435213      Node   343.64435     +0.35754849     +0.66950425

e   0.6716548      Incl.   18.05946     +0.40613623     +0.51633054

P  10.66

From 110 observations 1992-2002, mean residual 0".99.



NAKANO

         **** Don't distribute anyone except personal use only ****

                (C) Copyright 2002 OAA/ComputingSection

write mail from CFAD0::NAKANO on 2002-09-17 00:59:40(JST).

 



–ß‚è‚Ü‚·B